GFSSGP_con_mlcape_159.txt.gz
CAPE
0 0 0 0 0 0 0 0 0 0 0 0 0 2 18 112 69 33 366 541 877 1499 1439 811 73 26 167 373 507 466 342 301 228 8 0 0 36 158 372 472 505 520 137 0 0 0 0 0 0
0 0 0 0 0 0 0 0 0 0 0 0 0 0 0 0 65 155 387 1096 1354 1537 1382 893 83 12 27 186 282 321 277 311 202 3 0 16 85 180 208 262 274 294 108 0 0 0 0 0 0
0 0 0 0 0 0 0 0 0 0 0 0 0 0 12 67 120 337 863 1365 1534 1505 1394 1023 127 31 2 0 5 121 210 226 119 3 0 22 119 195 144 105 94 154 296 224 25 0 0 0 0
0 0 0 0 0 0 0 0 0 0 0 0 0 0 56 1199 852 765 1405 1550 1327 1369 1251 861 194 34 0 0 0 0 11 27 15 0 0 30 104 84 73 96 168 209 272 256 145 0 0 0 0
0 0 0 0 0 0 0 0 0 0 0 0 0 0 0 810 1375 1353 1624 1512 1293 1302 1282 802 204 32 4 2 0 0 0 0 0 0 0 23 33 27 33 84 175 278 279 120 0 0 0 0 0
0 0 0 0 0 0 0 0 0 0 0 0 0 0 0 1632 1608 1702 1693 1491 1409 1411 1264 987 375 53 5 2 0 0 0 0 0 0 1 5 0 0 0 2 48 42 0 0 0 0 0 0 0
0 0 0 0 0 0 0 0 0 0 0 0 0 0 0 1095 1806 1805 1646 1615 1603 1586 1426 1138 563 167 10 2 1 0 0 0 0 0 0 0 0 0 0 0 0 0 0 0 0 0 0 0 14
0 0 0 0 0 0 0 0 0 0 0 0 0 0 0 659 1826 1755 1628 1575 1640 1631 1447 1243 731 256 145 42 0 0 0 0 0 0 0 0 0 0 0 0 0 4 0 1 0 0 0 0 0
0 0 0 0 0 0 0 0 0 0 0 0 0 0 0 986 1610 1797 1556 1482 1581 1605 1593 1291 771 404 186 116 150 30 4 0 0 0 0 0 14 3 0 0 2 31 37 30 10 10 8 0 0
0 0 0 0 0 0 0 0 0 0 0 0 0 0 0 613 1202 1602 1478 1340 1416 1438 1447 1502 1073 550 291 195 267 184 115 11 0 0 95 157 268 142 0 0 0 0 0 0 0 0 0 0 9
0 0 0 0 0 0 0 0 0 0 0 0 0 0 1 909 1206 1480 1693 1482 1264 1245 1321 1375 1267 802 317 163 306 196 181 180 196 204 299 312 197 149 15 23 0 27 6 11 9 35 44 80 107
0 0 0 0 0 0 0 0 0 0 0 0 0 0 0 827 1357 1740 1884 1701 1324 1213 1320 1177 1236 895 565 432 205 205 169 146 58 65 156 93 47 69 80 1 0 36 23 90 123 113 212 243 202
0 0 0 0 0 0 0 0 0 0 0 0 0 0 0 0 888 1611 1775 1643 1316 1237 1256 1203 1031 999 856 539 307 233 164 81 82 83 65 6 0 0 0 0 0 10 119 331 450 533 524 499 423
0 0 0 0 0 0 0 0 0 0 0 0 0 0 0 0 85 1358 1621 1604 1484 1348 1225 1170 1363 1155 885 594 557 376 223 117 174 114 36 0 0 0 0 0 2 21 167 386 524 564 626 601 468
0 0 0 0 0 0 0 0 0 0 0 0 0 0 0 0 0 531 1563 1612 1610 1457 1332 1272 1330 1262 1043 802 774 587 299 111 105 104 98 10 0 0 0 0 0 85 260 279 361 756 643 594 510
0 0 0 0 0 0 0 0 0 0 0 0 0 0 0 0 0 656 1569 1518 1479 1394 1201 1091 1198 1245 1229 969 823 686 464 193 100 155 180 51 1 0 0 24 72 184 311 541 743 516 495 623 815
0 0 0 0 0 0 0 0 0 0 0 0 0 0 0 0 16 1465 1698 1551 1406 1308 1181 933 1110 1094 1011 576 546 671 560 305 171 212 216 124 35 0 0 70 172 858 712 666 562 565 572 489 257
0 0 0 0 0 0 0 0 0 0 0 0 0 0 0 0 17 1891 1816 1523 1393 1329 1144 938 844 867 683 564 695 648 589 394 254 220 204 157 78 9 0 41 342 628 645 575 508 292 364 197 127
0 0 0 0 0 0 0 0 0 0 0 0 0 0 0 0 19 1791 1815 1477 1423 1347 1087 847 747 772 717 483 317 483 461 397 290 210 210 197 81 62 97 445 584 694 278 255 266 350 195 203 64
0 0 0 0 0 0 0 0 0 0 0 0 0 0 0 0 147 1633 1600 1561 1336 1239 1010 993 1023 1122 782 625 704 606 493 418 468 392 344 341 571 577 387 256 238 166 12 17 42 35 56 118 0
0 0 0 0 0 0 0 0 0 0 0 0 0 0 0 0 26 1254 1556 1514 1439 1286 1164 1040 943 722 736 625 707 756 840 725 544 611 597 105 37 62 103 0 0 0 0 11 5 7 27 20 0
0 0 0 0 0 0 0 0 0 0 0 0 0 0 0 0 1 1124 1527 1566 1572 1586 1568 1177 934 704 640 602 664 704 802 326 250 204 17 5 2 0 0 1 0 9 5 1 0 0 0 0 0
4 0 0 1 0 0 0 0 0 0 0 0 0 0 0 0 0 749 1476 1635 1712 1641 1387 1158 988 886 971 889 1183 629 300 60 4 3 2 0 0 0 0 0 0 0 7 0 0 0 0 0 0
8 3 1 2 0 0 0 0 0 0 0 0 0 0 0 0 0 902 1591 1674 1577 1359 1186 1116 1085 1108 1344 1130 697 390 275 58 4 1 0 1 0 1 1 0 0 1 0 0 0 0 0 0 0
5 1 1 2 3 0 0 0 0 0 0 0 0 0 0 0 0 984 1635 1619 1419 1295 1182 1169 946 1236 1081 794 630 478 290 96 22 0 0 0 1 0 0 0 0 0 0 0 0 0 0 0 0
0 0 0 0 0 0 0 0 0 0 0 0 0 0 0 0 37 1208 1768 1799 1488 1294 1177 1030 1110 1302 1175 853 633 449 365 255 110 1 0 0 0 0 0 0 0 0 0 0 0 0 0 0 0
0 0 0 3 0 0 2 0 0 0 0 0 0 0 0 0 41 1516 1982 1783 1153 1138 1009 1058 1139 1046 1060 654 447 552 332 122 0 1 4 2 4 6 0 0 0 0 0 0 0 0 0 0 0
1 0 0 1 0 1 0 0 0 0 0 0 0 0 0 0 17 1431 1634 1086 942 769 776 757 772 749 670 548 481 313 40 0 1 5 3 4 1 0 0 0 0 0 0 0 0 0 0 0 0
0 1 0 2 0 14 14 0 0 0 0 0 0 0 0 0 15 884 941 707 346 174 396 401 403 449 342 139 23 2 3 4 3 4 1 0 0 0 0 0 0 0 0 0 0 0 0 0 0
3 6 0 3 0 0 5 1 0 0 0 0 0 0 0 13 477 398 204 78 8 27 56 79 11 28 3 3 3 1 2 0 0 0 0 0 0 0 0 0 0 0 0 0 0 0 0 0 7

GFSSGP_con_mlcape_162.txt.gz
CAPE
0 0 0 0 0 0 0 0 0 0 0 0 0 0 0 10 262 476 626 1038 1552 1745 1479 739 550 811 879 859 649 441 121 14 23 226 161 200 217 522 714 705 383 153 132 494 529 309 36 0 0
0 0 0 0 0 0 0 0 0 0 0 0 0 0 0 0 2 531 744 860 1668 1892 1611 655 584 781 764 790 755 424 65 40 92 91 101 285 227 542 744 606 469 194 0 0 44 17 0 0 0
0 0 0 0 0 0 0 0 0 0 0 0 0 0 0 25 314 462 951 1050 1568 1820 1513 695 459 620 676 720 671 376 132 104 31 3 94 150 142 376 448 412 452 306 97 0 0 0 0 0 0
0 0 0 0 0 0 0 0 0 0 0 0 0 0 0 1519 1316 1160 1251 1279 1644 1641 1257 1003 421 333 451 623 598 456 315 226 28 5 78 92 105 151 260 215 210 355 378 287 57 0 0 16 0
0 0 0 0 0 0 0 0 0 0 0 0 0 0 0 583 923 1637 1417 1533 1650 1478 1224 722 363 107 167 420 516 421 374 237 61 1 77 85 104 159 192 233 268 251 312 303 131 2 0 0 0
0 0 0 0 0 0 0 0 0 0 0 0 0 0 0 937 1663 1855 1849 1669 1524 1393 1261 428 306 62 21 146 328 293 277 227 96 16 60 82 107 150 234 234 272 295 260 78 0 0 0 0 0
0 0 0 0 0 0 0 0 0 0 0 0 0 0 0 529 1852 2116 1934 1729 1565 1464 1027 503 111 87 15 14 32 30 75 62 29 5 24 39 52 101 114 90 161 103 6 0 0 0 0 0 0
0 0 0 0 0 0 0 0 0 0 0 0 0 0 0 1 1730 2225 1906 1746 1626 1554 1098 498 162 57 36 49 43 5 11 16 3 3 30 33 46 65 41 11 0 0 0 0 0 0 0 0 13
0 0 0 0 0 0 0 0 0 0 0 0 0 0 0 573 1682 2250 2057 1888 1687 1500 1253 617 219 32 9 4 88 40 32 3 1 16 32 0 0 0 0 4 0 1 3 3 0 0 7 16 0
0 0 0 0 0 0 0 0 0 0 0 0 0 0 0 9 753 1544 2241 1970 1880 1593 1425 933 378 123 42 26 121 0 0 0 0 0 0 0 3 0 0 0 0 9 5 0 0 0 0 0 0
0 0 0 0 0 0 0 0 0 0 0 0 0 0 0 0 98 582 1414 2105 2045 1744 1532 1232 760 389 165 82 29 1 0 0 0 0 3 27 124 53 0 0 0 0 0 0 0 0 0 20 31
0 0 0 0 0 0 0 0 0 0 0 0 0 0 0 0 109 351 1016 1975 2142 1974 1731 1558 1273 826 439 237 121 131 34 3 1 1 126 192 70 39 0 0 0 0 0 0 0 9 175 301 373
0 0 0 0 0 0 0 0 0 0 0 0 0 0 0 0 10 1117 1490 1682 2204 2070 1941 1738 1708 1229 676 494 279 256 247 218 104 97 153 25 0 0 0 0 0 0 0 40 69 372 662 815 772
0 0 0 0 0 0 0 0 0 0 0 0 0 0 0 0 0 114 1535 1877 2380 2172 1949 1804 1763 1608 1075 933 508 417 343 270 272 224 160 23 0 0 0 0 0 0 68 353 455 689 1014 1090 1040
0 0 0 0 0 0 0 0 0 0 0 0 0 0 0 0 0 0 819 1550 2546 2356 2062 1778 1821 1808 1504 1145 950 737 520 350 345 336 388 175 56 26 0 0 0 0 598 1021 850 1179 1391 1240 998
0 0 0 0 0 0 0 0 0 0 0 0 0 0 0 0 0 0 0 1257 2191 2365 2242 1802 1840 1931 1789 1273 1239 961 795 520 400 447 602 389 181 4 0 0 0 68 635 672 1151 1488 1165 932 748
0 0 0 0 0 0 0 0 0 0 0 0 0 0 0 0 0 0 0 540 1901 2350 2285 1628 2183 1934 1829 1619 1554 1337 1215 844 543 556 620 643 215 18 0 0 22 1053 949 1261 1241 1079 798 494 175
1 2 0 0 0 0 0 0 0 0 0 0 0 0 0 0 0 0 76 1006 2040 2275 2374 2307 2289 1947 2000 1945 1554 1307 1249 1022 724 706 651 805 254 27 0 236 533 1139 1038 842 820 713 398 126 49
4 0 0 0 0 0 0 0 0 0 0 0 0 0 0 0 0 0 664 1613 2300 2351 2302 2290 2114 2084 2016 1485 1076 945 849 907 846 780 716 624 214 72 55 185 949 963 775 635 347 433 185 16 9
22 10 0 1 8 0 0 0 0 0 0 0 0 0 0 0 0 0 1250 2021 2380 2502 2397 2314 2087 2088 1638 1168 992 759 727 917 832 621 640 542 500 729 723 826 273 71 0 0 0 19 73 79 43
19 8 2 14 24 14 0 0 0 0 0 0 0 0 0 0 0 0 1368 2399 2656 2667 2457 2409 1963 1537 1395 1301 1253 1164 1136 1204 989 998 888 928 794 500 199 53 28 0 0 1 0 0 20 97 88
14 14 15 4 0 1 13 0 0 0 0 0 0 0 0 0 0 38 1841 2739 2713 2765 2666 2294 1925 2032 1753 1486 1137 1092 615 775 593 220 91 30 2 1 0 0 0 1 1 0 0 0 4 0 1
7 11 11 22 9 4 0 4 0 0 0 0 0 0 0 0 0 7 2091 2834 2794 2734 2404 2264 2148 1875 1567 1316 1220 1264 725 291 29 3 3 2 3 0 0 1 4 2 0 0 0 0 0 0 0
5 11 16 18 10 7 0 24 0 0 0 0 0 0 0 0 0 0 2008 2865 2931 2745 2574 2327 2001 1698 1525 1478 1593 696 297 101 21 2 1 2 4 3 0 3 0 0 1 0 0 0 0 0 0
11 2 5 1 3 0 5 14 0 0 0 0 0 0 0 0 0 0 2042 2684 2808 2785 2606 2348 1929 1724 1687 1925 1092 750 437 346 274 118 2 0 0 0 5 1 1 0 0 0 0 0 0 0 0
12 1 15 6 7 3 6 1 0 0 0 0 0 0 0 0 0 43 2033 2555 2733 2630 2456 1835 1892 1994 1704 1454 1303 1060 790 824 491 3 1 0 3 5 3 2 0 0 0 0 0 0 0 0 0
1 0 0 0 0 1 22 11 0 0 0 0 0 0 0 0 0 498 2029 2463 2505 2451 2007 2033 2040 1834 1545 1536 1495 1236 1243 541 160 57 6 4 3 2 0 0 0 0 0 0 0 0 0 0 0
2 1 9 8 17 34 45 28 4 0 0 0 0 0 0 0 2 1217 2189 2479 2447 1910 1970 2124 2107 1886 1475 1613 1506 869 215 44 3 4 3 1 0 0 0 0 0 0 0 0 0 0 0 0 0
0 0 1 60 14 37 15 20 38 0 0 0 0 0 0 0 326 1677 2023 1870 1544 1549 1924 2116 2219 1510 1523 1220 263 15 18 3 3 4 5 1 0 0 0 0 0 0 0 0 0 0 0 0 3
38 30 30 32 14 21 17 0 183 0 0 0 0 0 0 0 1155 1477 1036 944 1149 1306 1341 1306 1351 1185 319 9 3 2 4 6 3 0 0 0 0 0 0 0 0 0 0 0 0 0 0 1 5

GFSSGP_con_mlcape_165.txt.gz
CAPE
0 0 0 0 0 0 0 0 0 0 0 0 0 0 0 43 275 1281 1140 1207 1606 1945 1362 711 791 1018 1065 984 778 295 250 27 9 96 176 300 467 810 707 296 165 372 673 725 615 335 0 0 0
0 0 0 0 0 0 0 0 0 0 0 0 0 0 0 5 0 893 1003 1342 1817 2094 1382 876 832 1114 1153 981 678 372 192 40 18 139 174 346 621 759 609 325 233 304 581 643 499 281 17 0 0
0 0 0 0 0 0 0 0 0 0 0 0 0 0 0 0 184 596 1234 1421 1973 2004 1411 1177 889 1171 1167 905 528 384 98 58 41 144 203 389 680 725 630 574 389 145 49 55 36 13 26 5 0
0 0 0 0 0 0 0 0 0 0 0 0 0 0 0 1090 1130 1010 1088 1469 2113 1941 1339 1303 844 1087 1263 873 642 381 113 59 62 115 283 345 650 664 628 624 505 321 131 35 0 0 0 0 0
0 0 0 0 0 0 0 0 0 0 0 0 0 0 0 598 570 1602 1342 1336 1992 2011 1452 1189 774 983 1105 968 691 230 93 52 48 124 226 298 422 460 422 329 400 596 583 409 38 0 0 0 0
0 0 0 0 0 0 0 0 0 0 0 0 0 0 0 459 398 980 1418 1655 1980 1863 1726 1014 829 992 1050 914 700 248 169 111 58 136 207 230 231 298 263 209 296 363 367 178 0 0 0 0 0
0 0 0 0 0 0 0 0 0 0 0 0 0 0 0 33 661 1272 1627 1948 1911 1742 1743 717 545 814 1047 919 691 428 371 257 103 152 207 193 288 207 162 210 262 227 85 0 0 0 0 0 0
0 0 0 0 0 0 0 0 0 0 0 0 0 0 0 32 1312 1518 1912 2046 1943 1793 1323 467 297 255 551 982 837 658 517 332 129 105 124 181 165 132 116 14 22 0 0 0 0 0 0 0 0
0 0 0 0 0 0 0 0 0 0 0 0 0 0 0 303 706 1045 1917 2102 1944 1664 1105 424 112 46 9 53 679 578 603 340 141 38 81 12 0 0 0 0 0 0 0 0 0 0 0 0 0
0 0 0 0 0 0 0 0 0 0 0 0 0 0 0 0 540 1000 1634 2078 2022 1686 1203 571 122 29 8 25 263 39 62 16 0 0 19 0 0 0 0 7 0 0 0 0 0 0 0 0 0
0 0 0 0 0 0 0 0 0 0 0 0 0 0 0 0 37 507 1622 2058 2122 1787 1361 748 403 124 52 56 3 1 0 0 0 0 1 0 3 2 0 7 0 0 0 0 0 0 0 0 5
0 0 0 0 0 0 0 0 0 0 0 0 0 0 0 0 0 56 566 1770 2347 2022 1622 957 603 408 281 232 8 0 0 0 0 0 1 66 108 98 0 0 0 0 0 0 0 0 50 156 155
0 0 0 0 0 0 0 0 0 0 0 0 0 0 0 0 0 24 207 564 2550 2322 1853 1362 963 708 772 559 94 108 16 0 2 20 73 139 53 66 0 0 0 0 0 0 0 0 309 484 406
0 0 0 0 0 0 0 0 0 0 0 0 0 0 0 0 0 0 499 726 1852 2409 2140 1715 1382 1208 930 765 590 569 449 276 224 164 140 140 49 46 0 0 0 0 0 1 47 72 380 559 655
0 0 0 0 0 0 0 0 0 0 0 0 0 0 0 0 0 0 0 904 1869 2632 2335 2058 1881 1642 1339 1145 895 884 789 588 419 342 395 165 107 122 0 0 0 0 0 208 332 595 542 772 1057
0 0 0 0 0 0 1 0 0 0 0 0 0 0 0 0 0 0 0 121 1906 2950 2428 2402 2109 1689 1845 1759 1259 1043 903 690 610 546 703 472 367 261 25 0 0 0 52 174 144 458 687 907 749
2 0 0 9 1 10 24 0 0 0 0 0 0 0 0 0 0 0 0 0 1542 2634 2328 2174 1950 2047 2094 2127 1591 1457 1408 935 660 612 739 855 595 189 0 0 0 109 43 267 1177 1160 1141 630 158
23 29 19 14 23 18 17 0 0 0 0 0 0 0 0 0 0 0 0 0 485 2857 2625 2378 1752 2406 2083 2128 1975 1636 1710 1146 642 558 646 1138 645 114 32 1 378 447 617 755 879 800 459 144 4
27 26 19 7 0 14 35 0 1 0 0 0 0 0 0 0 0 0 0 0 271 2907 2630 2375 2065 2261 2126 2097 1939 1527 1322 949 620 627 1053 960 384 98 65 36 1142 1102 550 605 728 462 161 1 0
21 30 24 39 37 29 54 36 41 3 0 0 0 0 0 0 0 0 0 0 1030 2885 2685 2479 2332 2408 2267 2251 1821 1219 950 714 662 885 851 610 387 372 118 1136 785 266 75 61 2 20 33 6 7
33 35 21 36 54 42 55 45 95 0 0 0 0 0 0 0 0 0 0 0 2178 2780 2701 2774 2627 2750 2562 1797 1708 1277 1096 984 789 982 732 824 845 979 852 837 377 55 0 0 0 0 0 3 41
24 28 37 44 45 35 45 8 39 7 0 0 0 0 0 0 0 0 0 214 2711 2700 2748 2921 2694 2558 2060 2147 1386 1292 1015 873 1061 1036 1336 1233 1014 883 628 298 10 1 2 4 0 0 0 0 2
10 43 42 48 44 28 3 33 0 91 32 0 0 0 0 0 0 0 0 887 2782 2440 2897 2599 2478 2095 2169 1968 1596 1333 1275 903 818 797 757 699 598 306 193 40 4 6 6 1 0 0 0 0 0
8 19 34 42 20 7 6 74 0 54 51 8 0 0 0 0 0 0 0 1306 2868 2472 2258 2294 2026 2127 2049 2075 1911 1722 845 439 405 572 550 242 241 92 51 14 4 1 3 0 0 0 0 0 0
15 23 8 8 21 0 62 51 0 71 27 14 0 0 0 0 0 0 0 2143 2367 2069 2107 2240 2422 2217 2046 2243 2121 983 757 596 718 753 113 67 8 10 2 11 7 6 1 0 0 0 0 0 0
20 17 0 1 60 46 96 31 10 103 39 33 0 0 0 0 0 0 0 2088 2042 2043 2415 2202 2176 1799 2212 2044 1483 1120 1011 1017 843 172 125 5 2 1 12 3 1 0 0 0 0 0 0 0 0
0 2 0 6 29 55 75 134 113 69 65 54 0 0 0 0 0 0 0 1706 1646 2100 2457 2393 2233 2136 2002 1517 1462 1186 1535 1010 384 196 103 0 1 5 5 0 0 0 0 0 0 0 0 0 0
1 24 2 0 2 27 27 28 47 105 52 5 4 0 0 0 0 0 0 11 642 2123 2522 2488 2345 2161 1740 1760 1384 1600 1137 635 326 158 1 6 3 0 0 0 0 0 0 0 0 0 0 0 0
6 1 3 33 86 49 18 38 87 116 122 79 0 0 0 0 0 0 275 943 1216 1758 2254 2319 2087 1949 1700 1400 1082 712 506 266 60 19 6 3 3 0 0 0 0 0 0 0 0 0 0 2 6
29 38 30 58 5 47 37 2 0 0 11 56 11 0 0 0 0 90 1318 267 56 1449 2195 2064 1695 1167 1048 954 565 320 209 16 6 3 2 4 0 0 0 0 0 0 0 0 0 0 0 4 6

GFSSGP_con_mlcape_168.txt.gz
CAPE
0 0 0 0 0 0 0 0 0 0 0 0 0 0 0 0 267 268 1545 1201 1532 1459 1352 608 677 934 1195 939 532 264 131 90 5 0 60 277 748 782 128 173 458 521 774 672 406 196 14 0 0
0 0 0 0 0 0 0 0 0 0 0 0 0 0 0 0 824 933 1329 1919 1784 1604 1076 945 611 904 999 905 553 238 171 77 12 0 170 361 698 669 234 237 544 780 827 779 497 172 0 0 0
0 0 0 0 0 0 0 0 0 0 0 0 0 0 0 56 678 1239 1641 2196 1993 1667 1119 1161 687 981 1051 983 591 255 151 44 23 13 206 431 684 663 370 270 319 589 700 512 265 65 0 0 0
0 0 0 0 0 0 0 0 0 0 0 0 0 0 0 964 1079 1484 1666 2292 2099 1578 1331 1074 811 956 1105 1001 594 337 121 66 67 56 243 547 825 719 579 421 275 135 44 1 0 0 0 0 0
0 0 0 0 0 0 0 0 0 0 0 0 0 0 5 594 1210 1282 1371 2238 2110 1598 1815 1113 1050 963 1085 973 597 380 87 43 78 121 273 670 834 734 637 529 434 323 178 14 0 0 0 0 0
0 0 0 0 0 0 0 0 0 0 0 0 0 0 49 295 788 1222 1281 2136 2156 1764 1728 1136 1384 1166 1131 947 662 328 59 53 75 171 367 674 717 601 384 249 376 423 303 98 0 0 0 0 0
0 0 0 0 0 0 0 0 0 0 0 0 0 0 131 406 634 1188 1475 1969 2264 2010 1642 1041 1517 1625 1192 971 676 190 71 55 70 233 413 314 371 324 170 169 271 152 25 0 0 0 0 0 0
0 0 0 0 0 0 0 0 0 0 0 0 0 0 28 815 781 1224 1401 1949 2138 2087 1473 910 1426 1517 1076 1166 817 267 119 123 136 289 218 142 144 126 109 106 66 9 0 0 0 0 0 0 0
0 0 0 0 0 0 0 0 0 0 0 0 0 0 312 682 836 1380 1703 2056 2172 2121 1327 683 861 1192 1185 1122 1107 551 496 355 329 326 126 24 92 29 0 1 2 0 0 0 0 0 0 0 0
0 0 0 0 0 0 0 0 0 0 0 0 0 0 3 99 335 977 1968 2118 2153 1890 998 599 351 489 606 935 1044 810 778 443 144 133 59 0 41 0 1 16 0 0 0 0 0 0 0 0 0
0 0 0 0 0 0 0 0 0 0 0 0 0 0 0 0 42 375 1176 2035 2250 1798 995 460 238 105 70 351 478 438 430 164 12 25 0 10 25 0 42 46 0 0 0 0 0 0 0 0 0
0 0 0 0 0 0 0 0 0 0 0 0 0 0 0 0 0 274 873 1512 2133 1587 989 426 210 64 38 137 15 39 3 0 0 102 0 1 150 47 18 64 0 0 0 0 0 0 0 58 47
0 0 0 0 0 0 0 0 0 0 0 0 0 0 0 0 0 0 290 977 2033 1499 880 401 146 33 197 0 0 0 0 0 6 167 0 43 307 121 0 70 0 0 0 0 0 0 287 286 366
0 0 0 0 0 0 0 0 0 0 0 0 0 0 0 0 0 0 57 206 1555 1484 689 429 278 259 236 0 19 0 0 0 0 107 0 194 278 162 138 140 4 33 0 0 0 11 377 112 648
0 0 0 0 0 0 0 0 0 0 0 0 0 0 0 0 0 0 0 69 430 955 678 424 503 823 493 175 463 155 40 10 26 193 24 420 216 142 52 41 0 0 0 0 275 398 394 334 808
0 0 0 0 0 0 0 0 0 0 0 0 0 0 0 0 0 0 0 0 183 1430 704 733 715 1003 982 731 1020 639 586 425 545 512 369 348 147 278 50 78 8 0 0 136 53 335 610 541 391
0 0 0 0 0 0 0 0 0 0 0 0 0 0 0 0 0 0 0 0 350 2104 725 901 877 1392 1346 1364 1279 1274 931 910 794 924 699 528 448 483 157 21 0 0 17 271 1162 953 819 289 24
3 4 5 11 24 9 0 0 0 0 0 0 0 0 0 0 0 0 0 0 70 2444 1099 793 646 1503 1414 1625 1397 1639 1003 1262 940 1073 1243 915 851 457 155 6 404 271 506 930 862 509 222 2 0
11 18 14 10 2 7 2 0 0 3 0 0 0 0 0 0 0 0 0 0 213 2612 1775 1070 68 1745 1741 1732 1402 1435 1217 1329 837 914 1451 1137 975 352 0 546 942 816 803 860 707 556 114 0 0
13 15 19 1 15 25 13 3 7 11 15 2 0 0 0 0 0 0 0 0 134 2341 2018 1688 2031 2011 1815 1787 1552 1783 1192 1276 785 1556 1506 944 759 381 132 1353 913 457 372 189 98 104 0 5 0
25 27 25 10 24 17 43 1 27 2 30 4 0 0 0 0 0 0 0 0 0 2188 2495 1893 1755 1733 1713 1835 1755 1724 909 945 1101 1270 1001 682 552 411 854 1044 520 323 124 1 0 0 0 0 0
6 21 17 20 35 7 82 9 1 42 57 75 8 0 0 0 0 0 0 0 0 2288 2783 2400 2198 1733 1896 1638 1981 1540 1038 1017 1359 984 969 898 971 981 739 442 110 0 0 0 2 6 0 0 0
3 19 19 45 22 8 13 37 0 53 90 84 10 0 0 0 0 0 0 0 397 2967 2856 2468 2368 2006 2137 1820 1419 1356 1147 1334 1216 1272 1233 1064 660 373 168 64 2 0 0 0 0 0 0 0 0
0 14 15 26 33 15 0 15 0 23 46 64 90 35 0 0 0 0 0 0 1782 3149 2991 2797 2437 2041 1757 1360 1762 1491 1480 1152 1393 1160 688 436 216 166 12 1 0 0 0 0 0 0 0 0 0
5 4 2 6 28 0 3 9 0 54 81 52 27 22 1 0 0 0 0 0 946 2412 2517 2626 2133 1541 1297 1740 1931 1670 1279 1150 1178 621 309 198 13 1 0 0 4 0 0 0 0 0 0 0 0
5 3 0 2 0 1 4 0 22 151 184 131 20 17 19 0 0 0 0 0 2670 3065 2650 2316 1784 1592 384 1936 1918 1495 1253 1050 809 227 274 211 0 0 5 1 0 0 0 0 0 0 0 0 0
0 2 3 3 0 20 0 0 67 9 10 118 84 8 1 11 0 0 0 0 2181 2740 2374 2232 1780 1603 1592 1974 1742 1357 1141 780 393 431 159 10 0 2 0 0 0 0 0 0 0 0 0 0 0
2 10 14 1 0 5 0 63 91 117 144 14 66 31 2 8 0 0 0 0 2249 2676 2411 1960 1696 1609 1784 1665 1358 1329 803 491 453 130 3 2 3 1 0 0 0 0 0 0 0 0 0 0 0
3 3 3 14 9 7 12 19 20 120 20 0 0 103 38 0 0 0 0 504 2502 2236 2059 1849 1924 2062 1626 1329 1421 917 467 360 116 50 7 3 0 0 0 0 0 0 0 0 0 0 0 0 0
2 6 8 3 0 2 14 0 45 44 3 0 14 103 96 1 0 0 271 1750 1769 2016 1642 1527 1652 1653 1204 1380 777 419 155 95 79 1 0 0 0 0 0 0 0 0 0 0 0 0 0 1 2

GFSSGP_con_mlcape_171.txt.gz
CAPE
0 0 0 0 0 0 0 0 0 0 0 0 0 0 42 224 30 30 1595 1614 1706 1217 1154 1268 1245 1152 988 671 343 89 13 0 0 0 158 570 141 21 5 143 554 718 532 272 91 0 0 0 0
0 0 0 0 0 0 0 0 0 0 0 0 0 0 0 395 167 191 1326 1721 1434 1220 929 1104 1227 1075 906 557 220 59 9 0 0 0 279 706 234 65 143 328 579 818 605 242 62 0 0 0 0
0 0 0 0 0 0 0 0 0 0 0 0 0 0 0 675 112 901 1722 1687 1367 980 877 1094 1043 1028 870 532 175 67 10 0 0 1 258 580 384 81 195 443 635 631 559 278 83 0 0 0 0
0 0 0 0 0 0 0 0 0 0 0 0 0 0 877 1184 1165 1993 1814 1816 1184 943 1059 1274 1035 872 749 604 210 120 4 0 0 15 222 465 378 173 152 198 257 225 141 71 0 0 0 0 0
0 0 0 0 0 0 0 0 0 0 0 0 0 0 1053 1209 1640 2166 1915 1782 1126 1306 1218 1051 1273 793 647 628 286 168 13 0 1 45 216 429 382 338 229 144 54 13 0 0 0 0 0 0 0
0 0 0 0 0 0 0 0 0 0 0 0 0 0 634 1326 1819 2467 2118 1739 1342 1431 1326 1177 1348 972 739 667 329 193 23 5 20 83 236 457 456 423 373 342 249 135 14 0 0 0 0 0 0
0 0 0 0 0 0 0 0 0 0 0 0 0 0 476 1208 1483 2355 2184 1590 1655 1536 1217 1142 1294 1221 867 719 375 157 22 25 32 73 194 443 447 276 160 113 77 54 13 0 0 0 0 0 0
0 0 0 0 0 0 0 0 0 0 0 0 0 0 356 1241 1148 2028 2053 1863 1744 1472 1223 867 1284 1243 1182 817 477 96 25 48 45 65 158 399 356 179 44 12 4 0 0 0 0 0 0 0 0
0 0 0 0 0 0 0 0 0 0 0 0 0 0 1219 1250 1322 1628 1992 1844 1677 1350 1156 753 1168 1145 1053 772 485 95 44 25 65 157 164 166 86 45 12 0 0 0 0 0 0 0 0 0 0
0 0 0 0 0 0 0 0 0 0 0 0 0 37 1233 1299 1348 1635 2104 2014 1730 1363 988 619 920 980 810 770 482 108 263 204 119 147 79 0 0 0 0 0 1 0 0 0 0 0 0 0 0
0 0 0 0 0 0 0 0 0 0 0 0 0 0 16 687 908 1560 1928 2059 1839 1478 814 484 681 923 903 875 542 219 405 176 65 21 0 0 6 9 0 0 0 0 0 0 0 0 0 0 0
0 0 0 0 0 0 0 0 0 0 0 0 0 0 0 0 300 715 1766 2033 1687 1403 923 445 445 665 767 632 488 326 151 21 0 0 0 0 23 0 15 0 0 0 0 0 0 0 0 0 0
0 0 0 0 0 0 0 0 0 0 0 0 0 0 0 0 0 88 497 1335 1489 1165 725 300 222 180 423 311 281 191 62 11 0 3 0 0 44 1 15 4 0 0 0 0 0 0 0 0 18
0 0 0 0 0 0 0 0 0 0 0 0 0 0 0 0 0 0 7 573 1632 1009 566 193 92 186 218 103 85 21 0 0 0 23 0 0 166 33 27 36 0 0 0 0 0 0 10 134 503
0 0 0 0 0 0 0 0 0 0 0 0 0 0 0 0 0 0 0 1 1249 1136 339 150 45 213 101 48 16 1 0 0 0 36 0 28 474 142 50 32 1 0 0 0 0 306 286 635 354
0 0 0 0 0 0 0 0 0 0 0 0 0 0 0 0 0 0 0 0 195 1098 535 156 374 252 84 60 29 3 0 11 3 64 0 98 391 224 93 2 0 0 0 0 2 147 216 214 76
0 0 0 0 0 0 0 0 0 0 0 0 0 0 0 0 0 0 0 0 434 1222 580 293 445 596 430 215 229 187 49 149 32 166 12 322 262 151 5 3 0 0 13 381 361 396 162 8 3
0 0 0 0 0 0 0 0 0 0 0 0 0 0 0 0 0 0 0 0 819 1091 491 390 90 630 633 744 825 926 545 622 434 474 276 338 152 413 123 0 0 75 309 640 225 10 0 0 0
0 0 0 0 0 0 0 0 0 0 0 0 0 0 0 0 0 0 0 0 819 1115 595 192 369 74 4 222 1089 1052 999 756 959 761 646 602 411 440 37 542 574 346 363 378 227 0 0 0 0
0 0 0 0 0 2 0 0 0 0 0 0 0 0 0 0 0 0 0 0 868 853 565 333 166 51 46 477 1203 1437 910 1353 1289 1172 973 852 718 287 453 629 398 277 117 0 0 0 0 0 0
0 7 4 0 10 1 17 0 0 0 0 0 0 0 0 0 0 0 0 0 367 708 377 223 259 278 862 1107 1294 1466 1197 1332 1366 1363 1074 1007 536 625 633 557 213 15 0 0 0 0 0 0 0
1 11 6 6 6 0 5 0 0 0 0 0 1 0 0 0 0 0 0 0 136 1235 503 200 32 122 727 947 1167 1330 1298 1509 1494 1209 973 721 577 600 442 214 18 0 0 0 0 0 0 0 0
0 0 0 0 0 0 2 19 0 0 0 0 0 13 8 0 0 0 0 0 4 1483 1547 1259 510 0 110 164 886 1314 1201 1454 1257 1028 632 512 471 395 141 15 0 0 0 0 0 0 0 0 0
0 4 0 0 8 2 0 0 0 0 0 0 0 9 1 7 1 0 0 0 113 2346 1930 1883 1251 419 911 150 279 801 1348 1441 1198 767 592 504 299 124 11 0 0 0 0 0 0 0 0 0 0
0 1 0 2 0 0 0 0 0 0 0 0 0 0 1 6 3 0 0 0 202 1808 1766 1768 1979 1542 1311 1172 1026 1176 1404 1359 857 594 501 380 169 11 0 0 0 0 0 0 0 0 0 0 0
0 0 1 0 2 0 0 0 0 0 2 9 8 46 19 0 18 0 0 0 8 1472 1610 1693 1887 1616 1379 1083 1017 1110 1136 760 526 416 235 119 38 0 0 0 0 0 0 0 0 0 0 0 0
0 0 3 4 0 0 0 0 0 1 0 1 63 36 14 0 6 2 0 0 0 1115 1213 1696 1746 1454 1175 904 815 787 572 372 335 256 91 19 1 0 0 0 0 0 0 0 0 0 0 0 0
0 0 0 0 0 0 0 0 9 63 57 8 12 10 0 0 4 0 0 0 0 388 1704 1643 1324 1214 1116 875 644 672 358 209 118 73 36 2 0 0 0 0 0 0 0 0 0 0 0 0 0
0 0 5 2 14 8 0 0 0 0 0 0 0 0 0 0 8 11 0 0 0 920 1854 1428 1082 821 982 604 634 393 206 47 26 1 0 0 0 0 0 0 0 0 0 0 0 0 0 0 0
0 0 1 8 0 0 0 0 0 0 6 0 0 0 0 1 13 0 0 0 0 1009 1658 1153 868 627 812 787 488 276 62 24 5 0 0 0 0 0 0 0 0 0 0 0 0 0 0 0 0